Weather in Zapolyarny

Russia / Yamalo-Nenets Autonomous Okrug     66°27′08″N   73°51′44″E
temp.,
°C
wind,
m/s
gust,
m/s
humid.,
%
clouds,
%
prec.,
mm/h
press.,
hPa
HPBL,
m
27 february, sat
sat2723:00−24wsw229989 0.1 102320
02:00−25w129995 0.1 102220
05:00−27w1210091 0.1 102319
08:00−29wsw1110098 0.0 102319
11:00−26wsw119894 0.0 102319
14:00−26se12950 0.0 102419
17:00−28s22981 0.0 102419
20:00−28sse339659 0.0 102420
28 february, sun
sun2823:00−29sse349758 0.0 102527
02:00−29s34983 0.0 102429
05:00−29sse449734 0.0 102549
08:00−29sse459739 0.0 102471
11:00−26s479660 0.0 1024189
14:00−24s479412 0.0 1024213
17:00−26s45967 0.0 102476
20:00−27s589523 0.0 1023101
1 march, mon
mon123:00−27s589533 0.0 1023122
02:00−28s589555 0.0 1023112
05:00−27s599373 0.0 1022161
08:00−27s51192100 0.0 1021208
11:00−25s61191100 0.0 1020262
14:00−23ssw61191100 0.0 1018308
17:00−24s6129386 0.0 1017246
20:00−24s713929 0.0 1016248
2 march, tue
tue223:00−25s7158917 0.0 1015265
02:00−25s8148780 0.0 1014253
05:00−25s8158690 0.0 1013280
08:00−24s91586100 0.0 1011289
11:00−22s101683100 0.0 1012350
14:00−19s101681100 0.0 1011416
17:00−20s91684100 0.0 1011391
20:00−20s91684100 0.0 1010378
3 march, wed
wed323:00−21s91785100 0.0 1011349
02:00−22s81490100 0.0 1011324
05:00−22s81493100 0.0 1010300
08:00−22sse81493100 0.0 1010307
11:00−21s91593100 0.0 1010363
14:00−19s91592100 0.0 1010422
17:00−19sse91592100 0.0 1010391
20:00−21sse81693100 0.0 1009359